Flag for U.S.A. Weather past 2 weeks in Baton Rouge, Louisiana, U.S.A.

Now
73 °F

Fog.


Feels Like: 70 °F
Forecast: 72 / 88 °F
Wind: No wind

Location: Baton Rouge Metropolitan - Ryan Field

Current Time: Sep 17, 2014 at 8:47:43 AM

Latest Report: Sep 17, 2014 at 7:53 AM


Visibility: 5 mi

Pressure: 29.97 "Hg

Humidity: 94%

Dew point: 71 °F

Location of Baton RougeLocation

Historic Weather in Baton Rouge — Graph

°F

Baton Rouge temperature yesterday

Maximum temperature yesterday: 89 °F (at 12:53 PM)
Minimum temperature yesterday: 73 °F (at 5:53 AM)
Average temperature yesterday: 78 °F

Past Weeks' High & Low Weather Summary

 TemperatureHumidityPressure
High92 °F (Sep 10, 1:53 PM)97% (Sep 3, 1:53 AM)30.15 "Hg (Sep 3, 1:53 AM)
Low68 °F (Sep 13, 11:53 PM)49% (Sep 10, 4:53 PM)29.88 "Hg (Sep 10, 6:53 PM)
Average79 °F81%30.02 "Hg
* Reported Sep 2 6:53 AM — Sep 17 6:53 AM, Baton Rouge, Weather by CustomWeather, © 2014

Note: Actual official high and low records may vary slightly from our data, if they occured in-between our weather recording intervals... More about our weather records

Advertising

Baton Rouge weather history for previous 24 hours

 ConditionsComfort  
Time TempWeatherWind HumidityBarometerVisibility
6:53 AM
Sep 17
71 °FFog.No wind96%29.97 "Hg4 mi
5:53 AM72 °FFog.No wind93%29.97 "Hg6 mi
4:53 AM72 °FFog.No wind97%29.96 "Hg6 mi
3:53 AM73 °FFog.3 mph94%29.96 "Hg6 mi
2:53 AM73 °FClear.No wind94%29.97 "Hg7 mi
1:53 AM73 °FClear.3 mph94%29.97 "Hg7 mi
1:00 AM73 °FPassing clouds.No wind97%29.99 "Hg8 mi
11:53 PM
Sep 16
73 °FLow clouds.3 mph97%30.00 "Hg7 mi
10:53 PM74 °FPassing clouds.3 mph94%30.03 "Hg10 mi
9:53 PM73 °FClear.6 mph97%30.03 "Hg9 mi
8:53 PM73 °FClear.3 mph94%30.02 "Hg10 mi
7:53 PM73 °FSunny.7 mph94%30.01 "Hg10 mi
6:53 PM75 °FBroken clouds.7 mph88%30.01 "Hg10 mi
5:53 PM76 °FBroken clouds.10 mph85%30.01 "Hg10 mi
4:53 PM78 °FCloudy.8 mph87%30.00 "Hg10 mi
3:53 PM79 °FLight rain. Broken clouds.No wind82%29.98 "Hg10 mi
3:00 PM84 °FThunderstorms. Broken clouds.10 mph65%29.99 "Hg10 mi
2:04 PM85 °FThunderstorms. Partly sunny.8 mph75%30.01 "Hg10 mi
12:53 PM89 °FPartly sunny.5 mph63%30.02 "Hg10 mi
11:53 AM88 °FScattered clouds.3 mph67%30.06 "Hg10 mi
10:53 AM85 °FBroken clouds.No wind72%30.07 "Hg10 mi
9:53 AM83 °FPassing clouds.No wind77%30.07 "Hg10 mi
8:53 AM81 °FSunny.No wind82%30.07 "Hg9 mi
Weather by CustomWeather, © 2014

See weather overviewHow to use our weather pages